Regional Weather Roundup
Issued by NWS

Home | Current Version | Previous Version | Graphics & Text | Print | Product List | Glossary On
Versions: 1 2 3 4 5 6 7 8 9 10 11 12 13 14 15 16 17 18 19 20 21 22 23 24 25 26 27 28 29 30 31 32 33 34 35 36 37 38 39 40 41 42 43 44 45 46 47 48 49 50
000
ASUS43 KMKX 261821
RWRWI

WISCONSIN REGIONAL WEATHER ROUNDUP
NATIONAL WEATHER SERVICE MILWAUKEE/SULLIVAN WI
100 PM CDT SUN APR 26 2015

NOTE: "FAIR" INDICATES FEW OR NO CLOUDS BELOW 12,000 FEET WITH NO
SIGNIFICANT WEATHER AND/OR OBSTRUCTIONS TO VISIBILITY.

WIZ001-002-006>008-014>016-023>028-261900-
NORTHWEST WISCONSIN

CITY           SKY/WX    TMP DP  RH WIND       PRES   REMARKS
SUPERIOR ARPT  SUNNY     45  26  47 NE10      30.19F
6HR MIN TEMP:  26; 6HR MAX TEMP:  46;

ASHLAND        SUNNY     50  32  50 NE12      30.19S
6HR MIN TEMP:  27; 6HR MAX TEMP:  51;

HAYWARD        SUNNY     55  19  24 N9        30.13F
6HR MIN TEMP:  28; 6HR MAX TEMP:  55;

SIREN          SUNNY     55  20  24 NE6       30.13F
6HR MIN TEMP:  28; 6HR MAX TEMP:  55;

CUMBERLAND     SUNNY     54  18  24 CALM      30.12F
RICE LAKE      SUNNY     55  20  25 NE5       30.13F
6HR MIN TEMP:  32; 6HR MAX TEMP:  55;

CHETEK         SUNNY     55  21  25 E3        30.11F
6HR MIN TEMP:  35; 6HR MAX TEMP:  56;

LADYSMITH      SUNNY     57  23  27 E6        30.12F
6HR MIN TEMP:  30; 6HR MAX TEMP:  56;

EAU CLAIRE     SUNNY     57  19  22 VRB6      30.10F
6HR MIN TEMP:  32; 6HR MAX TEMP:  57;

MENOMONIE      SUNNY     56  17  21 N6        30.11F
6HR MIN TEMP:  32; 6HR MAX TEMP:  57;

NEW RICHMOND   SUNNY     57  20  23 NW7       30.12F
6HR MIN TEMP:  32; 6HR MAX TEMP:  57;

OSCEOLA        SUNNY     56  20  24 CALM      30.15F
6HR MIN TEMP:  30; 6HR MAX TEMP:  57;

$$

WIZ003>005-009-010-017-018-261900-
NORTH CENTRAL WISCONSIN

CITY           SKY/WX    TMP DP  RH WIND       PRES   REMARKS
MANITOWISH WTR SUNNY     53  21  28 N13       30.10S
6HR MIN TEMP:  25; 6HR MAX TEMP:  53;

ARBOR VITAE    SUNNY     55  19  25 N8G17     30.09S
6HR MIN TEMP:  27; 6HR MAX TEMP:  56;

WOODRUFF       SUNNY     55  19  25 N8G17     30.09S
6HR MIN TEMP:  27; 6HR MAX TEMP:  56;

RHINELANDER    SUNNY     54  19  25 NW13G20   30.07F
6HR MIN TEMP:  30; 6HR MAX TEMP:  55;

EAGLE RIVER    SUNNY     54  17  23 N13       30.07F
6HR MIN TEMP:  30; 6HR MAX TEMP:  54;

LAND O LAKES   SUNNY     53  20  28 N10G21    30.09F
6HR MIN TEMP:  28; 6HR MAX TEMP:  53;

PHILLIPS       SUNNY     55  22  28 NE9       30.09F
6HR MIN TEMP:  27; 6HR MAX TEMP:  54;

TOMAHAWK       SUNNY     55  19  24 CALM      30.08F
6HR MIN TEMP:  28; 6HR MAX TEMP:  56;

MEDFORD        SUNNY     55  23  29 N3        30.08F
6HR MIN TEMP:  30; 6HR MAX TEMP:  55;

MERRILL        SUNNY     57  23  26 NE5       30.07S
6HR MIN TEMP:  29; 6HR MAX TEMP:  57;

$$

WIZ029-030-035-036-043>047-261900-
CENTRAL WISCONSIN

CITY           SKY/WX    TMP DP  RH WIND       PRES   REMARKS
WAUSAU         SUNNY     57  21  24 N14       30.05F
6HR MIN TEMP:  33; 6HR MAX TEMP:  57;

MOSINEE        SUNNY     54  21  28 NW8       30.07F
MARSHFIELD     SUNNY     56  23  27 VRB3      30.08F
6HR MIN TEMP:  35; 6HR MAX TEMP:  57;

STEVENS POINT  SUNNY     55  21  26 NE10      30.06F
6HR MIN TEMP:  28; 6HR MAX TEMP:  55;

WAUPACA        SUNNY     59  20  22 N9        30.06F
6HR MIN TEMP:  33; 6HR MAX TEMP:  59;

WAUTOMA        SUNNY     57  20  24 NE10      30.06F
6HR MIN TEMP:  34; 6HR MAX TEMP:  57;

WISC RAPIDS    SUNNY     56  17  21 NE9       30.08F
6HR MIN TEMP:  35; 6HR MAX TEMP:  58;

CAMP DOUGLAS   SUNNY     59  23  25 NW7       30.07F
$$

WIZ011>013-019>022-031-037>040-048>050-261900-
NORTHEAST WISCONSIN

CITY           SKY/WX    TMP DP  RH WIND       PRES   REMARKS
ANTIGO         SUNNY     55  22  27 NE12      30.05F
SHAWANO        SUNNY     60  23  24 E8        30.05F
6HR MIN TEMP:  36; 6HR MAX TEMP:  60;

OCONTO         SUNNY     53  25  34 E10       30.05F
6HR MIN TEMP:  35; 6HR MAX TEMP:  55;

STURGEON BAY   SUNNY     52  25  35 N10       30.08S
6HR MIN TEMP:  36; 6HR MAX TEMP:  52;

GREEN BAY      SUNNY     56  26  31 NE14      30.06F
6HR MIN TEMP:  35; 6HR MAX TEMP:  57;

MANITOWOC      SUNNY     54  29  38 NE10      30.05F
6HR MIN TEMP:  35; 6HR MAX TEMP:  55;

APPLETON       SUNNY     55  21  26 N6        30.06F
CLINTONVILLE   SUNNY     59  21  23 E6        30.04F
OSHKOSH        SUNNY     55  26  32 NE13      30.05F
6HR MIN TEMP:  34; 6HR MAX TEMP:  56;

$$

WIZ032>034-041-042-053>061-261900-
SOUTHWEST WISCONSIN

CITY           SKY/WX    TMP DP  RH WIND       PRES   REMARKS
LA CROSSE      SUNNY     60  24  25 N9        30.09F
6HR MIN TEMP:  35; 6HR MAX TEMP:  60;

SPARTA         SUNNY     57  19  22 NE3       30.08F
6HR MIN TEMP:  26; 6HR MAX TEMP:  58;

VIROQUA        SUNNY     55  24  30 N10       30.07F
6HR MIN TEMP:  34; 6HR MAX TEMP:  55;

BOSCOBEL       SUNNY     59  25  27 VRB6      30.08F
6HR MIN TEMP:  28; 6HR MAX TEMP:  59;

PRAIRIE DU CHI SUNNY     56  25  30 W7        30.07F
6HR MIN TEMP:  30; 6HR MAX TEMP:  56;

PLATTEVILLE    SUNNY     55  28  36 N9        30.07S
6HR MIN TEMP:  35; 6HR MAX TEMP:  55;

$$

WIZ056-057-062-063-064-067-068-261900-
SOUTH CENTRAL WISCONSIN

CITY           SKY/WX    TMP DP  RH WIND       PRES   REMARKS
REEDSBURG      SUNNY     54  26  33 N5        30.06F
6HR MIN TEMP:  32; 6HR MAX TEMP:  54;

BARABOO/DELLS  SUNNY     55  23  29 NE6       30.06F
6HR MIN TEMP:  32; 6HR MAX TEMP:  55;

LONE ROCK      SUNNY     57  25  29 VRB7      30.07F
6HR MIN TEMP:  29; 6HR MAX TEMP:  57;

MINERAL POINT  SUNNY     55  27  33 NE9       30.06F
MADISON        MOSUNNY   56  28  34 N12       30.06F
6HR MIN TEMP:  35; 6HR MAX TEMP:  56;

MIDDLETON      SUNNY     55  26  32 NE7       30.06F
6HR MIN TEMP:  35; 6HR MAX TEMP:  55;

WATERTOWN      SUNNY     55  28  35 N8        30.03F
6HR MIN TEMP:  34; 6HR MAX TEMP:  55;

MONROE         SUNNY     54  30  40 NE13      30.05F
JANESVILLE     SUNNY     55  25  30 N12       30.04F
$$

WIZ051-052-058>065-066-070>072-261900-
SOUTHEAST WISCONSIN

CITY           SKY/WX    TMP DP  RH WIND       PRES   REMARKS
MILWAUKEE      MOSUNNY   47  32  56 NE10      30.05F
6HR MIN TEMP:  38; 6HR MAX TEMP:  48;

WAUKESHA       SUNNY     54  27  35 NE10      30.03F
MILWAUKEE/TIMM NOT AVBL
RACINE         SUNNY     49  32  52 NE13      30.05F
6HR MIN TEMP:  38; 6HR MAX TEMP:  51;

BURLINGTON     SUNNY     54  26  33 NE5       30.02F
6HR MIN TEMP:  33; 6HR MAX TEMP:  55;

KENOSHA        SUNNY     55  29  36 N13G20    30.03F
6HR MIN TEMP:  36; 6HR MAX TEMP:  56;

FOND DU LAC    SUNNY     56  25  30 NE13      30.05F
6HR MIN TEMP:  37; 6HR MAX TEMP:  56;

SHEBOYGAN      SUNNY     51  32  48 E10       30.05S
6HR MIN TEMP:  36; 6HR MAX TEMP:  54;

WEST BEND      SUNNY     54  25  32 NE7G18    30.03S
JUNEAU         SUNNY     54  26  34 N12G21    30.05F
6HR MIN TEMP:  35; 6HR MAX TEMP:  55;

$$

LSZ147-162-261900-
LAKE SUPERIOR

STATION/POSITION TIME  TEMP    WIND        PRES    WAVE
                       AIR SEA DIR/SP/G            HT/PER
                 (UTC) (F)     (DEG/KT/KT) (MB)    (FT/S)
W MID LAKE BUOY  1750   36 35   60/ 12/ 14 1023.8F   1/ 3
DEVILS ISLAND    1800   37      90/  5/  5 1023.6F
PORT WING        1740   39      10/  8/ 10 1022.7S
SAXON HARBOR     1700   38      20/  6/  7 1022.4
$$

LMZ867-665-643>646-261900-
LAKE MICHIGAN

STATION/POSITION TIME  TEMP    WIND        PRES    WAVE
                       AIR SEA DIR/SP/G            HT/PER



USA.gov is the U.S. government's official web portal to all federal, state and local government web resources and services.